TimeEDT,TemperatureF,Dew PointF,Humidity,Sea Level PressureIn,VisibilityMPH,Wind Direction,Wind SpeedMPH,Gust SpeedMPH,PrecipitationIn,Events,Conditions,WindDirDegrees,DateUTC
12:53 AM,54.0,42.1,64,30.11,10.0,ESE,4.6,-,N/A,,Clear,110,2013-03-11 04:53:00
1:53 AM,52.0,43.0,71,30.10,10.0,East,6.9,-,N/A,,Clear,100,2013-03-11 05:53:00
2:53 AM,52.0,45.0,77,30.09,10.0,ESE,6.9,-,N/A,,Clear,120,2013-03-11 06:53:00
3:53 AM,51.1,46.0,83,30.06,10.0,ESE,8.1,-,N/A,,Overcast,110,2013-03-11 07:53:00
4:53 AM,52.0,46.9,83,30.03,10.0,ESE,6.9,-,N/A,,Overcast,110,2013-03-11 08:53:00
5:00 AM,51.8,46.4,82,30.05,10.0,ESE,8.1,-,N/A,,Overcast,120,2013-03-11 09:00:00
5:32 AM,51.8,46.4,82,30.06,10.0,ESE,5.8,-,N/A,,Overcast,120,2013-03-11 09:32:00
5:53 AM,52.0,46.9,83,30.04,10.0,ESE,6.9,-,N/A,,Overcast,120,2013-03-11 09:53:00
6:02 AM,51.8,46.4,82,30.06,10.0,Variable,4.6,-,N/A,,Overcast,0,2013-03-11 10:02:00
6:53 AM,51.1,46.9,86,30.06,10.0,ESE,6.9,-,N/A,,Overcast,120,2013-03-11 10:53:00
7:53 AM,51.1,46.9,86,30.05,10.0,ESE,5.8,-,N/A,,Overcast,120,2013-03-11 11:53:00
8:20 AM,51.8,48.2,88,30.06,10.0,ESE,10.4,-,N/A,,Overcast,120,2013-03-11 12:20:00
8:28 AM,51.8,46.4,82,30.06,10.0,SE,13.8,33.4,N/A,,Overcast,140,2013-03-11 12:28:00
8:53 AM,52.0,46.9,83,30.04,10.0,SE,11.5,-,N/A,,Overcast,130,2013-03-11 12:53:00
9:53 AM,53.1,48.0,83,30.04,10.0,SE,9.2,-,N/A,,Overcast,130,2013-03-11 13:53:00
10:53 AM,53.1,48.0,83,30.02,10.0,SE,8.1,-,N/A,,Overcast,140,2013-03-11 14:53:00
11:53 AM,55.9,48.9,77,30.01,10.0,SSE,9.2,16.1,N/A,,Overcast,160,2013-03-11 15:53:00
12:53 PM,57.9,50.0,75,29.97,10.0,SSE,10.4,17.3,N/A,,Mostly Cloudy,150,2013-03-11 16:53:00
1:00 PM,57.2,50.0,77,29.98,10.0,SE,13.8,19.6,N/A,,Scattered Clouds,130,2013-03-11 17:00:00
1:53 PM,61.0,50.0,67,29.91,10.0,SE,9.2,18.4,N/A,,Scattered Clouds,140,2013-03-11 17:53:00
2:01 PM,60.8,50.0,68,29.91,10.0,SE,10.4,19.6,N/A,,Mostly Cloudy,130,2013-03-11 18:01:00
2:53 PM,62.1,50.0,65,29.86,10.0,SE,11.5,20.7,N/A,,Overcast,140,2013-03-11 18:53:00
3:53 PM,62.1,50.0,65,29.85,10.0,SE,12.7,17.3,N/A,,Overcast,140,2013-03-11 19:53:00
4:53 PM,59.0,54.0,83,29.82,5.0,SE,4.6,-,0.03,Rain,Light Rain,130,2013-03-11 20:53:00
5:39 PM,57.2,55.4,94,29.86,2.0,West,9.2,-,0.09,Rain,Rain,270,2013-03-11 21:39:00
5:41 PM,57.2,53.6,88,29.86,1.5,West,8.1,-,0.13,Rain,Heavy Rain,280,2013-03-11 21:41:00
5:44 PM,57.2,53.6,88,29.86,1.0,West,8.1,-,0.17,Rain,Heavy Rain,260,2013-03-11 21:44:00
5:46 PM,57.2,53.6,88,29.86,0.8,SW,6.9,-,0.19,Rain,Heavy Rain,230,2013-03-11 21:46:00
5:53 PM,55.0,53.1,93,29.86,0.8,West,12.7,20.7,0.30,Rain,Heavy Rain,280,2013-03-11 21:53:00
6:01 PM,53.6,51.8,94,29.88,1.2,WNW,6.9,-,0.06,Rain,Heavy Rain,290,2013-03-11 22:01:00
6:06 PM,53.6,51.8,94,29.87,1.8,WNW,10.4,-,0.08,Rain,Rain,300,2013-03-11 22:06:00
6:12 PM,53.6,51.8,94,29.89,2.0,WNW,10.4,-,0.11,Rain,Heavy Rain,290,2013-03-11 22:12:00
6:43 PM,53.6,51.8,94,29.88,3.0,NW,8.1,-,0.22,Rain,Rain,310,2013-03-11 22:43:00
6:53 PM,54.0,52.0,93,29.86,3.0,NW,6.9,-,0.25,Rain,Rain,320,2013-03-11 22:53:00
7:16 PM,53.6,51.8,94,29.88,2.5,NNW,4.6,-,0.06,Rain,Rain,330,2013-03-11 23:16:00
7:24 PM,53.6,51.8,94,29.88,2.0,NNW,3.5,-,0.10,Rain,Rain,340,2013-03-11 23:24:00
7:28 PM,53.6,51.8,94,29.87,3.0,North,4.6,-,0.12,Rain,Rain,360,2013-03-11 23:28:00
7:53 PM,54.0,52.0,93,29.85,4.0,NNE,5.8,-,0.20,Rain,Rain,30,2013-03-11 23:53:00
8:53 PM,54.0,52.0,93,29.84,6.0,ENE,4.6,-,0.14,Rain,Light Rain,70,2013-03-12 00:53:00
9:13 PM,53.6,51.8,94,29.85,4.0,ENE,4.6,-,0.07,Rain,Rain,70,2013-03-12 01:13:00
9:21 PM,53.6,51.8,94,29.85,4.0,East,5.8,-,0.10,Rain,Rain,90,2013-03-12 01:21:00
9:46 PM,53.6,53.6,100,29.85,5.0,NE,5.8,-,0.17,Rain,Rain,50,2013-03-12 01:46:00
9:53 PM,54.0,53.1,97,29.83,3.0,ENE,4.6,-,0.20,Rain,Heavy Rain,60,2013-03-12 01:53:00
10:53 PM,54.0,53.1,97,29.82,4.0,East,3.5,-,0.08,Rain,Light Rain,90,2013-03-12 02:53:00
11:03 PM,53.6,53.6,100,29.83,2.5,ESE,4.6,-,0.03,Rain,Light Rain,120,2013-03-12 03:03:00
11:18 PM,55.4,53.6,94,29.83,2.0,ESE,3.5,-,0.08,Rain,Rain,110,2013-03-12 03:18:00
11:31 PM,55.4,53.6,94,29.83,2.0,Calm,Calm,-,0.12,Rain,Rain,0,2013-03-12 03:31:00
11:44 PM,53.6,53.6,100,29.84,2.5,West,5.8,-,0.14,Rain,Light Rain,270,2013-03-12 03:44:00
11:53 PM,54.0,53.1,97,29.82,2.5,WNW,8.1,-,0.16,Rain,Light Rain,290,2013-03-12 03:53:00